Year,Month,Day,Hour,Minute,Value (Times are PST for temperature in C)
2023,11,04,00,00,12.20
2023,11,04,00,01,12.10
2023,11,04,00,02,12.20
2023,11,04,00,03,12.20
2023,11,04,00,04,12.20
2023,11,04,00,05,12.20
2023,11,04,00,06,12.20
2023,11,04,00,07,12.20
2023,11,04,00,08,12.20
2023,11,04,00,09,12.20
2023,11,04,00,10,12.30
2023,11,04,00,11,12.30
2023,11,04,00,12,12.30
2023,11,04,00,13,12.30
2023,11,04,00,14,12.30
2023,11,04,00,15,12.30
2023,11,04,00,16,12.30
2023,11,04,00,17,12.30
2023,11,04,00,18,12.30
2023,11,04,00,19,12.30
2023,11,04,00,20,12.30
2023,11,04,00,21,12.30
2023,11,04,00,22,12.30
2023,11,04,00,23,12.30
2023,11,04,00,24,12.30
2023,11,04,00,25,12.30
2023,11,04,00,26,12.30
2023,11,04,00,27,12.30
2023,11,04,00,28,12.30
2023,11,04,00,29,12.30
2023,11,04,00,30,12.30
2023,11,04,00,31,12.30
2023,11,04,00,32,12.30
2023,11,04,00,33,12.30
2023,11,04,00,34,12.30
2023,11,04,00,35,12.30
2023,11,04,00,36,12.30
2023,11,04,00,37,12.30
2023,11,04,00,38,12.30
2023,11,04,00,39,12.20
2023,11,04,00,40,12.20
2023,11,04,00,41,12.20
2023,11,04,00,42,12.20
2023,11,04,00,43,12.20
2023,11,04,00,44,12.20
2023,11,04,00,45,12.20
2023,11,04,00,46,12.20
2023,11,04,00,47,12.20
2023,11,04,00,48,12.20
2023,11,04,00,49,12.20
2023,11,04,00,50,12.10
2023,11,04,00,51,12.10
2023,11,04,00,52,12.10
2023,11,04,00,53,12.10
2023,11,04,00,54,12.10
2023,11,04,00,55,12.10
2023,11,04,00,56,12.10
2023,11,04,00,57,12.10
2023,11,04,00,58,12.10
2023,11,04,00,59,12.10
2023,11,04,01,00,12.10
2023,11,04,01,01,12.00
2023,11,04,01,02,12.00
2023,11,04,01,03,12.00
2023,11,04,01,04,12.00
2023,11,04,01,05,12.00
2023,11,04,01,06,11.90
2023,11,04,01,07,11.90
2023,11,04,01,08,11.90
2023,11,04,01,09,11.90
2023,11,04,01,10,11.90
2023,11,04,01,11,11.90
2023,11,04,01,12,11.90
2023,11,04,01,13,11.90
2023,11,04,01,14,11.90
2023,11,04,01,15,11.90
2023,11,04,01,16,11.90
2023,11,04,01,17,11.90
2023,11,04,01,18,11.90
2023,11,04,01,19,12.00
2023,11,04,01,20,12.00
2023,11,04,01,21,12.00
2023,11,04,01,22,12.00
2023,11,04,01,23,12.00
2023,11,04,01,24,12.00
2023,11,04,01,25,12.00
2023,11,04,01,26,12.00
2023,11,04,01,27,12.00
2023,11,04,01,28,12.00
2023,11,04,01,29,12.00
2023,11,04,01,30,12.10
2023,11,04,01,31,12.10
2023,11,04,01,32,12.10
2023,11,04,01,33,12.10
2023,11,04,01,34,12.10
2023,11,04,01,35,12.10
2023,11,04,01,36,12.10
2023,11,04,01,37,12.10
2023,11,04,01,38,12.10
2023,11,04,01,39,12.10
2023,11,04,01,40,12.10
2023,11,04,01,41,12.10
2023,11,04,01,42,12.10
2023,11,04,01,43,12.10
2023,11,04,01,44,12.10
2023,11,04,01,45,12.20
2023,11,04,01,46,12.20
2023,11,04,01,47,12.20
2023,11,04,01,48,12.20
2023,11,04,01,49,12.20
2023,11,04,01,50,12.20
2023,11,04,01,51,12.20
2023,11,04,01,52,12.20
2023,11,04,01,53,12.20
2023,11,04,01,54,12.20
2023,11,04,01,55,12.20
2023,11,04,01,56,12.20
2023,11,04,01,57,12.20
2023,11,04,01,58,12.20
2023,11,04,01,59,12.20
2023,11,04,02,00,12.20
2023,11,04,02,01,12.20
2023,11,04,02,02,12.20
2023,11,04,02,03,12.20
2023,11,04,02,04,12.20
2023,11,04,02,05,12.20
2023,11,04,02,06,12.20
2023,11,04,02,07,12.20
2023,11,04,02,08,12.20
2023,11,04,02,09,12.20
2023,11,04,02,10,12.20
2023,11,04,02,11,12.20
2023,11,04,02,12,12.20
2023,11,04,02,13,12.20
2023,11,04,02,14,12.20
2023,11,04,02,15,12.20
2023,11,04,02,16,12.20
2023,11,04,02,17,12.20
2023,11,04,02,18,12.20
2023,11,04,02,19,12.20
2023,11,04,02,20,12.20
2023,11,04,02,21,12.20
2023,11,04,02,22,12.20
2023,11,04,02,23,12.20
2023,11,04,02,24,12.20
2023,11,04,02,25,12.20
2023,11,04,02,26,12.20
2023,11,04,02,27,12.20
2023,11,04,02,28,12.20
2023,11,04,02,29,12.20
2023,11,04,02,30,12.20
2023,11,04,02,31,12.20
2023,11,04,02,32,12.20
2023,11,04,02,33,12.30
2023,11,04,02,34,12.30
2023,11,04,02,35,12.30
2023,11,04,02,36,12.30
2023,11,04,02,37,12.30
2023,11,04,02,38,12.30
2023,11,04,02,39,12.30
2023,11,04,02,40,12.30
2023,11,04,02,41,12.30
2023,11,04,02,42,12.30
2023,11,04,02,43,12.30
2023,11,04,02,44,12.30
2023,11,04,02,45,12.30
2023,11,04,02,46,12.30
2023,11,04,02,47,12.30
2023,11,04,02,48,12.30
2023,11,04,02,49,12.30
2023,11,04,02,50,12.30
2023,11,04,02,51,12.30
2023,11,04,02,52,12.30
2023,11,04,02,53,12.30
2023,11,04,02,54,12.30
2023,11,04,02,55,12.30
2023,11,04,02,56,12.30
2023,11,04,02,57,12.30
2023,11,04,02,58,12.30
2023,11,04,02,59,12.30
2023,11,04,03,00,12.30
2023,11,04,03,01,12.30
2023,11,04,03,02,12.30
2023,11,04,03,03,12.30
2023,11,04,03,04,12.30
2023,11,04,03,05,12.30
2023,11,04,03,06,12.40
2023,11,04,03,07,12.40
2023,11,04,03,08,12.40
2023,11,04,03,09,12.30
2023,11,04,03,10,12.30
2023,11,04,03,11,12.30
2023,11,04,03,12,12.30
2023,11,04,03,13,12.30
2023,11,04,03,14,12.30
2023,11,04,03,15,12.30
2023,11,04,03,16,12.30
2023,11,04,03,17,12.30
2023,11,04,03,18,12.30
2023,11,04,03,19,12.40
2023,11,04,03,20,12.40
2023,11,04,03,21,12.40
2023,11,04,03,22,12.40
2023,11,04,03,23,12.40
2023,11,04,03,24,12.40
2023,11,04,03,25,12.30
2023,11,04,03,26,12.30
2023,11,04,03,27,12.40
2023,11,04,03,28,12.30
2023,11,04,03,29,12.30
2023,11,04,03,30,12.30
2023,11,04,03,31,12.30
2023,11,04,03,32,12.30
2023,11,04,03,33,12.30
2023,11,04,03,34,12.30
2023,11,04,03,35,12.30
2023,11,04,03,36,12.30
2023,11,04,03,37,12.30
2023,11,04,03,38,12.30
2023,11,04,03,39,12.30
2023,11,04,03,40,12.30
2023,11,04,03,41,12.30
2023,11,04,03,42,12.30
2023,11,04,03,43,12.30
2023,11,04,03,44,12.30
2023,11,04,03,45,12.30
2023,11,04,03,46,12.30
2023,11,04,03,47,12.40
2023,11,04,03,48,12.40
2023,11,04,03,49,12.40
2023,11,04,03,50,12.40
2023,11,04,03,51,12.40
2023,11,04,03,52,12.40
2023,11,04,03,53,12.40
2023,11,04,03,54,12.40
2023,11,04,03,55,12.40
2023,11,04,03,56,12.40
2023,11,04,03,57,12.40
2023,11,04,03,58,12.50
2023,11,04,03,59,12.50
2023,11,04,04,00,12.50
2023,11,04,04,01,12.50
2023,11,04,04,02,12.50
2023,11,04,04,03,12.60
2023,11,04,04,04,12.60
2023,11,04,04,05,12.60
2023,11,04,04,06,12.60
2023,11,04,04,07,12.60
2023,11,04,04,08,12.60
2023,11,04,04,09,12.60
2023,11,04,04,10,12.60
2023,11,04,04,11,12.60
2023,11,04,04,12,12.70
2023,11,04,04,13,12.70
2023,11,04,04,14,12.70
2023,11,04,04,15,12.80
2023,11,04,04,16,12.80
2023,11,04,04,17,12.80
2023,11,04,04,18,12.80
2023,11,04,04,19,12.90
2023,11,04,04,20,12.90
2023,11,04,04,21,12.90
2023,11,04,04,22,12.90
2023,11,04,04,23,12.90
2023,11,04,04,24,12.90
2023,11,04,04,25,12.90
2023,11,04,04,26,12.90
2023,11,04,04,27,12.90
2023,11,04,04,28,12.90
2023,11,04,04,29,12.90
2023,11,04,04,30,12.90
2023,11,04,04,31,13.00
2023,11,04,04,32,13.00
2023,11,04,04,33,13.00
2023,11,04,04,34,13.00
2023,11,04,04,35,13.00
2023,11,04,04,36,13.00
2023,11,04,04,37,12.90
2023,11,04,04,38,12.90
2023,11,04,04,39,12.90
2023,11,04,04,40,12.90
2023,11,04,04,41,12.90
2023,11,04,04,42,12.90
2023,11,04,04,43,12.90
2023,11,04,04,44,12.80
2023,11,04,04,45,12.80
2023,11,04,04,46,12.80
2023,11,04,04,47,12.80
2023,11,04,04,48,12.80
2023,11,04,04,49,12.80
2023,11,04,04,50,12.70
2023,11,04,04,51,12.70
2023,11,04,04,52,12.70
2023,11,04,04,53,12.70
2023,11,04,04,54,12.70
2023,11,04,04,55,12.70
2023,11,04,04,56,12.70
2023,11,04,04,57,12.70
2023,11,04,04,58,12.70
2023,11,04,04,59,12.70
2023,11,04,05,00,12.70
2023,11,04,05,01,12.70
2023,11,04,05,02,12.60
2023,11,04,05,03,12.60
2023,11,04,05,04,12.60
2023,11,04,05,05,12.60
2023,11,04,05,06,12.60
2023,11,04,05,07,12.60
2023,11,04,05,08,12.60
2023,11,04,05,09,12.60
2023,11,04,05,10,12.70
2023,11,04,05,11,12.70
2023,11,04,05,12,12.70
2023,11,04,05,13,12.80
2023,11,04,05,14,12.80
2023,11,04,05,15,12.80
2023,11,04,05,16,12.80
2023,11,04,05,17,12.80
2023,11,04,05,18,12.80
2023,11,04,05,19,12.80
2023,11,04,05,20,12.80
2023,11,04,05,21,12.80
2023,11,04,05,22,12.80
2023,11,04,05,23,12.80
2023,11,04,05,24,12.80
2023,11,04,05,25,12.80
2023,11,04,05,26,12.80
2023,11,04,05,27,12.70
2023,11,04,05,28,12.70
2023,11,04,05,29,12.70
2023,11,04,05,30,12.70
2023,11,04,05,31,12.70
2023,11,04,05,32,12.70
2023,11,04,05,33,12.60
2023,11,04,05,34,12.30
2023,11,04,05,35,12.10
2023,11,04,05,36,12.10
2023,11,04,05,37,12.10
2023,11,04,05,38,12.10
2023,11,04,05,39,12.10
2023,11,04,05,40,12.10
2023,11,04,05,41,12.10
2023,11,04,05,42,12.10
2023,11,04,05,43,12.10
2023,11,04,05,44,12.10
2023,11,04,09,08,13.20
2023,11,04,09,09,13.20
2023,11,04,09,10,13.20
2023,11,04,09,11,13.20
2023,11,04,09,12,13.20
2023,11,04,09,13,13.20
2023,11,04,09,14,13.30
2023,11,04,09,15,13.30
2023,11,04,09,16,13.30
2023,11,04,09,17,13.30
2023,11,04,09,18,13.30
2023,11,04,09,19,13.30
2023,11,04,09,20,13.30
2023,11,04,09,21,13.40
2023,11,04,09,22,13.40
2023,11,04,09,23,13.40
2023,11,04,09,24,13.40
2023,11,04,09,25,13.40
2023,11,04,09,26,13.40
2023,11,04,09,27,13.40
2023,11,04,09,28,13.50
2023,11,04,09,29,13.50
2023,11,04,09,30,13.50
2023,11,04,09,31,13.50
2023,11,04,09,32,13.50
2023,11,04,09,33,13.50
2023,11,04,09,34,13.50
2023,11,04,09,35,13.60
2023,11,04,09,36,13.60
2023,11,04,09,37,13.60
2023,11,04,09,38,13.60
2023,11,04,09,39,13.60
2023,11,04,09,40,13.60
2023,11,04,09,41,13.70
2023,11,04,09,42,13.70
2023,11,04,09,43,13.70
2023,11,04,09,44,13.70
2023,11,04,09,45,13.70
2023,11,04,09,46,13.70
2023,11,04,09,47,13.70
2023,11,04,09,48,13.70
2023,11,04,09,49,13.70
2023,11,04,09,50,13.70
2023,11,04,09,51,13.70
2023,11,04,09,52,13.70
2023,11,04,09,53,13.70
2023,11,04,09,54,13.70
2023,11,04,09,55,13.70
2023,11,04,09,56,13.70
2023,11,04,09,57,13.70
2023,11,04,09,58,13.70
2023,11,04,09,59,13.70
2023,11,04,10,00,13.70
2023,11,04,10,01,13.70
2023,11,04,10,02,13.70
2023,11,04,10,03,13.70
2023,11,04,10,04,13.70
2023,11,04,10,05,13.70
2023,11,04,10,06,13.70
2023,11,04,10,07,13.70
2023,11,04,10,08,13.70
2023,11,04,10,09,13.70
2023,11,04,10,10,13.80
2023,11,04,10,11,13.80
2023,11,04,10,12,13.80
2023,11,04,10,13,13.80
2023,11,04,10,14,13.80
2023,11,04,10,15,13.80
2023,11,04,10,16,13.80
2023,11,04,10,17,13.80
2023,11,04,10,18,13.80
2023,11,04,10,19,13.80
2023,11,04,10,20,13.80
2023,11,04,10,21,13.80
2023,11,04,10,22,13.80
2023,11,04,10,23,13.80
2023,11,04,10,24,13.80
2023,11,04,10,25,13.80
2023,11,04,10,26,13.70
2023,11,04,10,27,13.60
2023,11,04,10,28,13.60
2023,11,04,10,29,13.60
2023,11,04,10,30,13.50
2023,11,04,10,31,13.50
2023,11,04,10,32,13.50
2023,11,04,10,33,13.50
2023,11,04,10,34,13.50
2023,11,04,10,35,13.60
2023,11,04,10,36,13.60
2023,11,04,10,37,13.60
2023,11,04,10,38,13.60
2023,11,04,10,39,13.60
2023,11,04,10,40,13.60
2023,11,04,10,41,13.60
2023,11,04,10,42,13.60
2023,11,04,10,43,13.70
2023,11,04,10,44,13.70
2023,11,04,10,45,13.70
2023,11,04,10,46,13.80
2023,11,04,10,47,13.90
2023,11,04,10,48,13.90
2023,11,04,10,49,13.90
2023,11,04,10,50,14.00
2023,11,04,10,51,14.00
2023,11,04,10,52,14.10
2023,11,04,10,53,14.20
2023,11,04,10,54,14.20
2023,11,04,10,55,14.30
2023,11,04,10,56,14.30
2023,11,04,10,57,14.30
2023,11,04,10,58,14.30
2023,11,04,10,59,14.30
2023,11,04,11,00,14.30
2023,11,04,11,01,14.20
2023,11,04,11,02,14.20
2023,11,04,11,03,14.10
2023,11,04,11,04,14.00
2023,11,04,11,05,13.90
2023,11,04,11,06,13.90
2023,11,04,11,07,13.80
2023,11,04,11,08,13.80
2023,11,04,11,09,13.80
2023,11,04,11,10,13.80
2023,11,04,11,11,13.80
2023,11,04,11,12,13.80
2023,11,04,11,13,13.80
2023,11,04,11,14,13.80
2023,11,04,11,15,13.80
2023,11,04,11,16,13.80
2023,11,04,11,17,13.90
2023,11,04,11,18,13.90
2023,11,04,11,19,14.00
2023,11,04,11,20,14.00
2023,11,04,11,21,14.10
2023,11,04,11,22,14.20
2023,11,04,11,23,14.30
2023,11,04,11,24,14.30
2023,11,04,11,25,14.40
2023,11,04,11,26,14.50
2023,11,04,11,27,14.50
2023,11,04,11,28,14.60
2023,11,04,11,29,14.70
2023,11,04,11,30,14.70
2023,11,04,11,31,14.80
2023,11,04,11,32,14.80
2023,11,04,11,33,14.90
2023,11,04,11,34,15.00
2023,11,04,11,35,15.00
2023,11,04,11,36,15.00
2023,11,04,11,37,15.10
2023,11,04,11,38,15.10
2023,11,04,11,39,15.10
2023,11,04,11,40,15.20
2023,11,04,11,41,15.20
2023,11,04,11,42,15.20
2023,11,04,11,43,15.20
2023,11,04,11,44,15.20
2023,11,04,11,45,15.20
2023,11,04,11,46,15.20
2023,11,04,11,47,15.20
2023,11,04,11,48,15.20
2023,11,04,11,49,15.20
2023,11,04,11,50,15.20
2023,11,04,11,51,15.20
2023,11,04,11,52,15.10
2023,11,04,11,53,15.20
2023,11,04,11,54,15.20
2023,11,04,11,55,15.20
2023,11,04,11,56,15.20
2023,11,04,11,57,15.20
2023,11,04,11,58,15.20
2023,11,04,11,59,15.20
2023,11,04,12,00,15.30
2023,11,04,12,01,15.30
2023,11,04,12,02,15.30
2023,11,04,12,03,15.40
2023,11,04,12,04,15.40
2023,11,04,12,05,15.50
2023,11,04,12,06,15.50
2023,11,04,12,07,15.60
2023,11,04,12,08,15.70
2023,11,04,12,09,15.70
2023,11,04,12,10,15.80
2023,11,04,12,11,15.80
2023,11,04,12,12,15.80
2023,11,04,12,13,15.80
2023,11,04,12,14,15.90
2023,11,04,12,15,15.90
2023,11,04,12,16,15.90
2023,11,04,12,17,16.00
2023,11,04,12,18,15.90
2023,11,04,12,19,16.00
2023,11,04,12,20,16.00
2023,11,04,12,21,16.00
2023,11,04,12,22,16.00
2023,11,04,12,23,16.10
2023,11,04,12,24,16.00
2023,11,04,12,25,16.00
2023,11,04,12,26,16.00
2023,11,04,12,27,16.00
2023,11,04,12,28,16.10
2023,11,04,12,29,16.10
2023,11,04,12,30,16.10
2023,11,04,12,31,16.20
2023,11,04,12,32,16.20
2023,11,04,12,33,16.30
2023,11,04,12,34,16.30
2023,11,04,12,35,16.40
2023,11,04,12,36,16.40
2023,11,04,12,37,16.50
2023,11,04,12,38,16.60
2023,11,04,12,39,16.70
2023,11,04,12,40,16.70
2023,11,04,12,41,16.80
2023,11,04,12,42,16.80
2023,11,04,12,43,16.80
2023,11,04,12,44,16.90
2023,11,04,12,45,16.90
2023,11,04,12,46,16.90
2023,11,04,12,47,16.90
2023,11,04,12,48,17.00
2023,11,04,12,49,17.00
2023,11,04,12,50,17.00
2023,11,04,12,51,17.00
2023,11,04,12,52,17.10
2023,11,04,12,53,17.00
2023,11,04,12,54,17.00
2023,11,04,12,55,17.10
2023,11,04,12,56,17.10
2023,11,04,12,57,17.10
2023,11,04,12,58,17.10
2023,11,04,12,59,17.20
2023,11,04,13,00,17.20
2023,11,04,13,01,17.20
2023,11,04,13,02,17.20
2023,11,04,13,03,17.30
2023,11,04,13,04,17.30
2023,11,04,13,05,17.30
2023,11,04,13,06,17.30
2023,11,04,13,07,17.30
2023,11,04,13,08,17.30
2023,11,04,13,09,17.30
2023,11,04,13,10,17.30
2023,11,04,13,11,17.30
2023,11,04,13,12,17.40
2023,11,04,13,13,17.40
2023,11,04,13,14,17.40
2023,11,04,13,15,17.40
2023,11,04,13,16,17.40
2023,11,04,13,17,17.40
2023,11,04,13,18,17.40
2023,11,04,13,19,17.40
2023,11,04,13,20,17.40
2023,11,04,13,21,17.40
2023,11,04,13,22,17.50
2023,11,04,13,23,17.50
2023,11,04,13,24,17.50
2023,11,04,13,25,17.50
2023,11,04,13,26,17.50
2023,11,04,13,27,17.50
2023,11,04,13,28,17.40
2023,11,04,13,29,17.40
2023,11,04,13,30,17.40
2023,11,04,13,31,17.40
2023,11,04,13,32,17.30
2023,11,04,13,33,17.30
2023,11,04,13,34,17.20
2023,11,04,13,35,17.20
2023,11,04,13,36,17.20
2023,11,04,13,37,17.20
2023,11,04,13,38,17.20
2023,11,04,13,39,17.20
2023,11,04,13,40,17.20
2023,11,04,13,41,17.20
2023,11,04,13,42,17.20
2023,11,04,13,43,17.10
2023,11,04,13,44,17.10
2023,11,04,13,45,17.10
2023,11,04,13,46,17.10
2023,11,04,13,47,17.10
2023,11,04,13,48,17.10
2023,11,04,13,49,17.10
2023,11,04,13,50,17.10
2023,11,04,13,51,17.10
2023,11,04,13,52,17.10
2023,11,04,13,53,17.20
2023,11,04,13,54,17.20
2023,11,04,13,55,17.20
2023,11,04,13,56,17.20
2023,11,04,13,57,17.20
2023,11,04,13,58,17.30
2023,11,04,13,59,17.30
2023,11,04,14,00,17.30
2023,11,04,14,01,17.40
2023,11,04,14,02,17.40
2023,11,04,14,03,17.40
2023,11,04,14,04,17.40
2023,11,04,14,05,17.30
2023,11,04,14,06,17.30
2023,11,04,14,07,17.30
2023,11,04,14,08,17.30
2023,11,04,14,09,17.30
2023,11,04,14,10,17.20
2023,11,04,14,11,17.20
2023,11,04,14,12,17.20
2023,11,04,14,13,17.20
2023,11,04,14,14,17.20
2023,11,04,14,15,17.20
2023,11,04,14,16,17.10
2023,11,04,14,17,17.10
2023,11,04,14,18,17.10
2023,11,04,14,19,17.10
2023,11,04,14,20,17.20
2023,11,04,14,21,17.10
2023,11,04,14,22,17.10
2023,11,04,14,23,17.00
2023,11,04,14,24,17.00
2023,11,04,14,25,16.90
2023,11,04,14,26,16.90
2023,11,04,14,27,16.80
2023,11,04,14,28,16.80
2023,11,04,14,29,16.80
2023,11,04,14,30,16.70
2023,11,04,14,31,16.70
2023,11,04,14,32,16.70
2023,11,04,14,33,16.70
2023,11,04,14,34,16.60
2023,11,04,14,35,16.60
2023,11,04,14,36,16.60
2023,11,04,14,37,16.50
2023,11,04,14,38,16.40
2023,11,04,14,39,16.30
2023,11,04,14,40,16.10
2023,11,04,14,41,16.00
2023,11,04,14,42,15.90
2023,11,04,14,43,15.80
2023,11,04,14,44,15.70
2023,11,04,14,45,15.60
2023,11,04,14,46,15.60
2023,11,04,14,47,15.60
2023,11,04,14,48,15.60
2023,11,04,14,49,15.60
2023,11,04,14,50,15.60
2023,11,04,14,51,15.70
2023,11,04,14,52,15.80
2023,11,04,14,53,15.80
2023,11,04,14,54,15.90
2023,11,04,14,55,15.90
2023,11,04,14,56,15.90
2023,11,04,14,57,15.90
2023,11,04,14,58,15.90
2023,11,04,14,59,15.90
2023,11,04,15,00,15.80
2023,11,04,15,01,15.80
2023,11,04,15,02,15.80
2023,11,04,15,03,15.80
2023,11,04,15,04,15.80
2023,11,04,15,05,15.80
2023,11,04,15,06,15.80
2023,11,04,15,07,15.90
2023,11,04,15,08,15.90
2023,11,04,15,09,15.90
2023,11,04,15,10,16.00
2023,11,04,15,11,16.00
2023,11,04,15,12,16.00
2023,11,04,15,13,16.10
2023,11,04,15,14,16.10
2023,11,04,15,15,16.10
2023,11,04,15,16,16.10
2023,11,04,15,17,16.20
2023,11,04,15,18,16.20
2023,11,04,15,19,16.30
2023,11,04,15,20,16.30
2023,11,04,15,21,16.30
2023,11,04,15,22,16.40
2023,11,04,15,23,16.40
2023,11,04,15,24,16.40
2023,11,04,15,25,16.40
2023,11,04,15,26,16.40
2023,11,04,15,27,16.40
2023,11,04,15,28,16.30
2023,11,04,15,29,16.30
2023,11,04,15,30,16.30
2023,11,04,15,31,16.30
2023,11,04,15,32,16.20
2023,11,04,15,33,16.20
2023,11,04,15,34,16.20
2023,11,04,15,35,16.20
2023,11,04,15,36,16.20
2023,11,04,15,37,16.20
2023,11,04,15,38,16.20
2023,11,04,15,39,16.20
2023,11,04,15,40,16.20
2023,11,04,15,41,16.20
2023,11,04,15,42,16.30
2023,11,04,15,43,16.20
2023,11,04,15,44,16.20
2023,11,04,15,45,16.20
2023,11,04,15,46,16.20
2023,11,04,15,47,16.20
2023,11,04,15,48,16.30
2023,11,04,15,49,16.30
2023,11,04,15,50,16.30
2023,11,04,15,51,16.30
2023,11,04,15,52,16.20
2023,11,04,15,53,16.20
2023,11,04,15,54,16.20
2023,11,04,15,55,16.10
2023,11,04,15,56,16.10
2023,11,04,15,57,16.00
2023,11,04,15,58,16.00
2023,11,04,15,59,15.90
2023,11,04,16,00,15.90
2023,11,04,16,01,15.90
2023,11,04,16,02,15.80
2023,11,04,16,03,15.80
2023,11,04,16,04,15.70
2023,11,04,16,05,15.70
2023,11,04,16,06,15.70
2023,11,04,16,07,15.60
2023,11,04,16,08,15.60
2023,11,04,16,09,15.60
2023,11,04,16,10,15.60
2023,11,04,16,11,15.50
2023,11,04,16,12,15.50
2023,11,04,16,13,15.40
2023,11,04,16,14,15.40
2023,11,04,16,15,15.30
2023,11,04,16,16,15.30
2023,11,04,16,17,15.30
2023,11,04,16,18,15.20
2023,11,04,16,19,15.20
2023,11,04,16,20,15.10
2023,11,04,16,21,15.10
2023,11,04,16,22,15.00
2023,11,04,16,23,15.00
2023,11,04,16,24,15.00
2023,11,04,16,25,14.90
2023,11,04,16,26,14.90
2023,11,04,16,27,14.90
2023,11,04,16,28,14.90
2023,11,04,16,29,15.00
2023,11,04,16,30,15.00
2023,11,04,16,31,15.00
2023,11,04,16,32,15.10
2023,11,04,16,33,15.10
2023,11,04,16,34,15.20
2023,11,04,16,35,15.30
2023,11,04,16,36,15.30
2023,11,04,16,37,15.30
2023,11,04,16,38,15.30
2023,11,04,16,39,15.40
2023,11,04,16,40,15.40
2023,11,04,16,41,15.40
2023,11,04,16,42,15.50
2023,11,04,16,43,15.50
2023,11,04,16,44,15.40
2023,11,04,16,45,15.40
2023,11,04,16,46,15.40
2023,11,04,16,47,15.40
2023,11,04,16,48,15.40
2023,11,04,16,49,15.30
2023,11,04,16,50,15.30
2023,11,04,16,51,15.30
2023,11,04,16,52,15.20
2023,11,04,16,53,15.20
2023,11,04,16,54,15.10
2023,11,04,16,55,15.10
2023,11,04,16,56,15.10
2023,11,04,16,57,15.00
2023,11,04,16,58,15.00
2023,11,04,16,59,15.00
2023,11,04,17,00,15.00
2023,11,04,17,01,15.00
2023,11,04,17,02,14.90
2023,11,04,17,03,14.90
2023,11,04,17,04,14.90
2023,11,04,17,05,14.90
2023,11,04,17,06,14.90
2023,11,04,17,07,14.90
2023,11,04,17,08,14.80
2023,11,04,17,09,14.80
2023,11,04,17,10,14.80
2023,11,04,17,11,14.80
2023,11,04,17,12,14.80
2023,11,04,17,13,14.80
2023,11,04,17,14,14.80
2023,11,04,17,15,14.80
2023,11,04,17,16,14.80
2023,11,04,17,17,14.80
2023,11,04,17,18,14.80
2023,11,04,17,19,14.80
2023,11,04,17,20,14.80
2023,11,04,17,21,14.80
2023,11,04,17,22,14.80
2023,11,04,17,23,14.80
2023,11,04,17,24,14.80
2023,11,04,17,25,14.80
2023,11,04,17,26,14.80
2023,11,04,17,27,14.90
2023,11,04,17,28,14.90
2023,11,04,17,29,14.90
2023,11,04,17,30,14.90
2023,11,04,17,31,14.90
2023,11,04,17,32,14.90
2023,11,04,17,33,14.90
2023,11,04,17,34,14.90
2023,11,04,17,35,14.90
2023,11,04,17,36,14.90
2023,11,04,17,37,14.90
2023,11,04,17,38,14.90
2023,11,04,17,39,14.90
2023,11,04,17,40,14.90
2023,11,04,17,41,14.90
2023,11,04,17,42,14.80
2023,11,04,17,43,14.80
2023,11,04,17,44,14.80
2023,11,04,17,45,14.80
2023,11,04,17,46,14.80
2023,11,04,17,47,14.80
2023,11,04,17,48,14.80
2023,11,04,17,49,14.80
2023,11,04,17,50,14.80
2023,11,04,17,51,14.70
2023,11,04,17,52,14.70
2023,11,04,17,53,14.70
2023,11,04,17,54,14.70
2023,11,04,17,55,14.70
2023,11,04,17,56,14.60
2023,11,04,17,57,14.60
2023,11,04,17,58,14.60
2023,11,04,17,59,14.50
2023,11,04,18,00,14.50
2023,11,04,18,01,14.40
2023,11,04,18,02,14.40
2023,11,04,18,03,14.30
2023,11,04,18,04,14.30
2023,11,04,18,05,14.30
2023,11,04,18,06,14.20
2023,11,04,18,07,14.20
2023,11,04,18,08,14.20
2023,11,04,18,09,14.10
2023,11,04,18,10,14.10
2023,11,04,18,11,14.00
2023,11,04,18,12,14.00
2023,11,04,18,13,13.90
2023,11,04,18,14,13.90
2023,11,04,18,15,13.90
2023,11,04,18,16,13.90
2023,11,04,18,17,13.90
2023,11,04,18,18,13.80
2023,11,04,18,19,13.80
2023,11,04,18,20,13.80
2023,11,04,18,21,13.80
2023,11,04,18,22,13.80
2023,11,04,18,23,13.80
2023,11,04,18,24,13.70
2023,11,04,18,25,13.70
2023,11,04,18,26,13.70
2023,11,04,18,27,13.70
2023,11,04,18,28,13.70
2023,11,04,18,29,13.70
2023,11,04,18,30,13.70
2023,11,04,18,31,13.70
2023,11,04,18,32,13.70
2023,11,04,18,33,13.70
2023,11,04,18,34,13.70
2023,11,04,18,35,13.70
2023,11,04,18,36,13.70
2023,11,04,18,37,13.70
2023,11,04,18,38,13.70
2023,11,04,18,39,13.70
2023,11,04,18,40,13.70
2023,11,04,18,41,13.70
2023,11,04,18,42,13.70
2023,11,04,18,43,13.80
2023,11,04,18,44,13.80
2023,11,04,18,45,13.80
2023,11,04,18,46,13.80
2023,11,04,18,47,13.80
2023,11,04,18,48,13.80
2023,11,04,18,49,13.80
2023,11,04,18,50,13.80
2023,11,04,18,51,13.80
2023,11,04,18,52,13.80
2023,11,04,18,53,13.80
2023,11,04,18,54,13.80
2023,11,04,18,55,13.80
2023,11,04,18,56,13.80
2023,11,04,18,57,13.80
2023,11,04,18,58,13.80
2023,11,04,18,59,13.80
2023,11,04,19,00,13.80
2023,11,04,19,01,13.80
2023,11,04,19,02,13.80
2023,11,04,19,03,13.80
2023,11,04,19,04,13.80
2023,11,04,19,05,13.80
2023,11,04,19,06,13.80
2023,11,04,19,07,13.80
2023,11,04,19,08,13.80
2023,11,04,19,09,13.80
2023,11,04,19,10,13.80
2023,11,04,19,11,13.80
2023,11,04,19,12,13.80
2023,11,04,19,13,13.90
2023,11,04,19,14,13.90
2023,11,04,19,15,13.90
2023,11,04,19,16,13.90
2023,11,04,19,17,13.90
2023,11,04,19,18,13.90
2023,11,04,19,19,13.90
2023,11,04,19,20,13.90
2023,11,04,19,21,13.80
2023,11,04,19,22,13.80
2023,11,04,19,23,13.80
2023,11,04,19,24,13.80
2023,11,04,19,25,13.70
2023,11,04,19,26,13.70
2023,11,04,19,27,13.70
2023,11,04,19,28,13.60
2023,11,04,19,29,13.60
2023,11,04,19,30,13.60
2023,11,04,19,31,13.60
2023,11,04,19,32,13.60
2023,11,04,19,33,13.50
2023,11,04,19,34,13.50
2023,11,04,19,35,13.50
2023,11,04,19,36,13.50
2023,11,04,19,37,13.50
2023,11,04,19,38,13.40
2023,11,04,19,39,13.40
2023,11,04,19,40,13.40
2023,11,04,19,41,13.40
2023,11,04,19,42,13.40
2023,11,04,19,43,13.40
2023,11,04,19,44,13.40
2023,11,04,19,45,13.30
2023,11,04,19,46,13.30
2023,11,04,19,47,13.30
2023,11,04,19,48,13.30
2023,11,04,19,49,13.30
2023,11,04,19,50,13.30
2023,11,04,19,51,13.30
2023,11,04,19,52,13.30
2023,11,04,19,53,13.30
2023,11,04,19,54,13.40
2023,11,04,19,55,13.40
2023,11,04,19,56,13.40
2023,11,04,19,57,13.40
2023,11,04,19,58,13.40
2023,11,04,19,59,13.40
2023,11,04,20,00,13.40
2023,11,04,20,01,13.40
2023,11,04,20,02,13.40
2023,11,04,20,03,13.40
2023,11,04,20,04,13.40
2023,11,04,20,05,13.40
2023,11,04,20,06,13.40
2023,11,04,20,07,13.40
2023,11,04,20,08,13.40
2023,11,04,20,09,13.40
2023,11,04,20,10,13.40
2023,11,04,20,11,13.40
2023,11,04,20,12,13.40
2023,11,04,20,13,13.40
2023,11,04,20,14,13.30
2023,11,04,20,15,13.30
2023,11,04,20,16,13.30
2023,11,04,20,17,13.30
2023,11,04,20,18,13.30
2023,11,04,20,19,13.30
2023,11,04,20,20,13.30
2023,11,04,20,21,13.30
2023,11,04,20,22,13.30
2023,11,04,20,23,13.30
2023,11,04,20,24,13.30
2023,11,04,20,25,13.30
2023,11,04,20,26,13.20
2023,11,04,20,27,13.20
2023,11,04,20,28,13.20
2023,11,04,20,29,13.20
2023,11,04,20,30,13.20
2023,11,04,20,31,13.20
2023,11,04,20,32,13.20
2023,11,04,20,33,13.20
2023,11,04,20,34,13.20
2023,11,04,20,35,13.20
2023,11,04,20,36,13.20
2023,11,04,20,37,13.20
2023,11,04,20,38,13.20
2023,11,04,20,39,13.20
2023,11,04,20,40,13.20
2023,11,04,20,41,13.20
2023,11,04,20,42,13.20